sat.trackr.live / text

‹ back to catalog

LANDSAT 9

NORAD 49260 · 2021-088A

PAYLOAD ACTIVE UNKNOWN

§ Identity

Operator
Country
US
Launch date
2021-09-27
Launch site
AFWTR
Launch vehicle
Mass (kg)
RCS (m²)

Purposes: earth_obs

External: N2YO · Heavens-Above · Gunter

§ Orbital elements

Epoch: 2026-09-20T02:21:28.927008Z

Period
98.83 min
Inclination
98.2196°
Eccentricity
0.0001509
Mean motion
14.57099983 rev/d
Perigee alt
701.5 km
Apogee alt
703.6 km
Semi-major
7,080.7 km
B*
4.7536e-5
RAAN
332.0836°
Arg perigee
94.7107°
Mean anomaly
265.4264°
Rev number
26,482

§ Raw data

LANDSAT 91 49260U 21088A   26263.09825147  .00000169  00000+0  47536-4 0  99992 49260  98.2196 332.0836 0001509  94.7107 265.4264 14.57099983264822

JSON: /api/v1/satellites/49260 · /tle

For live sub-satellite position, see the globe view (requires WebGL).

§ Visibility from observer

Set your observer location to see the next 7 days of passes ≥ 10°. The values pass through the URL so the page stays shareable.

No JS? Fill the form by hand. The geolocation button needs JavaScript.

§ Radio — SatNOGS DB

ModeDescriptionDownlinkUplink
FM S-band telemetry 2.282 GHz

1 transmitter · refreshed weekly from db.satnogs.org